Weather in Los Realejos

Spain     28°22′48″N   16°35′00″W
temp.,
°C
wind,
m/s
gust,
m/s
humid.,
%
clouds,
%
prec.,
mm/h
press.,
hPa
HPBL,
m
26 september, sun
sun2601:00+22e667211 0.0 1019519
04:00+21ene66735 0.0 1019475
07:00+21ene777484 0.0 1019454
10:00+22ene777154 0.0 1020441
13:00+23ne8771100 0.0 1020418
16:00+23ne877355 0.0 1019425
19:00+22ne76765 0.0 1020409
22:00+22ene667911 0.0 1022424
27 september, mon
mon2701:00+22ene667712 0.0 1021392
04:00+22ene77789 0.0 1020402
07:00+22ene78788 0.0 1020390
10:00+23ene897718 0.0 1021387
13:00+24ene887627 0.0 1021378
16:00+24ene987438 0.0 1020352
19:00+23ne877827 0.0 1021421
22:00+22ene778117 0.0 1022371
28 september, tue
tue2801:00+22ene777813 0.0 1022403
04:00+22ene778012 0.0 1021417
07:00+21ene778312 0.0 1021441
10:00+22ene888013 0.0 1022497
13:00+23ene99745 0.0 1022522
16:00+23ene99755 0.0 1021527
19:00+22ene98785 0.0 1021510
22:00+21ene888111 0.0 1023552
29 september, wed
wed2901:00+21ene888112 0.0 1022628
04:00+21ne888013 0.0 1021707
07:00+21ne887914 0.0 1021789
10:00+22ne897621 0.0 1022876
13:00+22ne997442 0.0 1023904
16:00+22ne787661 0.0 1021877
19:00+21ne787970 0.1 1021919
22:00+21ne788170 0.1 1022895
30 september, thu
thu3001:00+21ne677558 0.2 1022941
04:00+21ne777422 0.1 1020951
07:00+21ne677778 0.2 1020935
10:00+21ne777756 0.0 1021875
13:00+22ne887866 0.0 1021789
16:00+22ne887864 0.0 1019706
19:00+22ne778367 0.1 1019683
22:00+22ne778369 0.1 1020657